Williston, ND

5:01 AM CDT on May 21, 2018 (GMT -0500)
Sloulin International

Weather History for KISN - July, 2013

Change the Weather History Date:

Saturday, July 13, 2013

  Actual Average Record
Temperature  
Mean Temperature 75 °F 70 °F  
Max Temperature 92 °F 84 °F 98 °F (1925)
Min Temperature 57 °F 56 °F 41 °F (1967)
Degree Days  
Heating Degree Days 0 1  
Month to date heating degree days 0 15  
Since 1 June heating degree days 128 135  
Since 1 July heating degree days 0 15  
Cooling Degree Days 10 6  
Month to date cooling degree days 87 63  
Year to date cooling degree days 122 144  
Since 1 June cooling degree days 114 131  
Growing Degree Days 24 (Base 50)    
Moisture  
Dew Point 61 °F    
Average Humidity 64    
Maximum Humidity 86    
Minimum Humidity 41    
Precipitation  
Precipitation 0.10 in 0.10 in 0.43 in (2005)
Month to date precipitation 0.82 1.26  
Year to date precipitation 12.79 8.39  
Snow  
Snow 0.00 in - - ()
Month to date snowfall 0.0  
Since 1 June snowfall 0.0  
Snow Depth 0.00 in    
Sea Level Pressure  
Sea Level Pressure 29.92 in    
Wind  
Wind Speed 13 mph (ENE)    
Max Wind Speed 33 mph    
Max Gust Speed 40 mph    
Visibility 9 miles    
Events Rain , Thunderstorm    
T = Trace of Precipitation, MM = Missing Value Source: NWS Daily Summary

Daily Weather History Graph

Daily Weather History Graph

Search for Another Location

Airport or City:

Astronomy

Jul. 13, 2013 Rise Set
Actual Time 6:08 AM CDT 9:51 PM CDT
Civil Twilight 5:28 AM CDT 10:31 PM CDT
Nautical Twilight 4:34 AM CDT 11:25 PM CDT
Astronomical Twilight 3:16 AM CDT 12:42 AM CDT
Moon 11:56 AM CDT (7/13) No Moon Set
Length of Visible Light 17h 02m
Length of Day
15h 43m
Waxing Crescent, 26% of the Moon is Illuminated
Jul 13
Waxing Crescent
Jul 15
First Quarter
Jul 22
Full
Jul 29
Last Quarter
Aug 6
New

Hourly Weather History & Observations

Time (CDT) Temp. Heat Index Dew Point Humidity Pressure Visibility Wind Dir Wind Speed Gust Speed Precip Events Conditions
12:52 AM 66.9 °F - 57.9 °F 73% 29.89 in 10.0 mi North 6.9 mph - N/A   Clear
1:52 AM 69.1 °F - 59.0 °F 70% 29.89 in 10.0 mi East 8.1 mph - N/A   Clear
2:52 AM 66.9 °F - 59.0 °F 76% 29.90 in 10.0 mi North 6.9 mph - N/A   Clear
3:52 AM 69.1 °F - 57.9 °F 68% 29.92 in 10.0 mi NE 6.9 mph - N/A   Clear
4:52 AM 66.9 °F - 57.0 °F 70% 29.92 in 10.0 mi ENE 5.8 mph - N/A   Scattered Clouds
5:52 AM 66.9 °F - 57.9 °F 73% 29.92 in 10.0 mi East 4.6 mph - N/A   Clear
6:52 AM 68.0 °F - 57.9 °F 70% 29.93 in 10.0 mi North 5.8 mph - N/A   Partly Cloudy
7:52 AM 68.0 °F - 59.0 °F 73% 29.92 in 10.0 mi ESE 8.1 mph - N/A   Mostly Cloudy
8:52 AM 72.0 °F - 59.0 °F 64% 29.94 in 10.0 mi SE 12.7 mph - N/A   Clear
9:52 AM 75.0 °F - 61.0 °F 62% 29.92 in 10.0 mi SE 9.2 mph - N/A   Clear
10:52 AM 80.1 °F 81.2 °F 62.1 °F 54% 29.91 in 10.0 mi SE 9.2 mph - N/A   Clear
11:52 AM 82.9 °F 84.0 °F 63.0 °F 51% 29.89 in 10.0 mi SE 11.5 mph - N/A   Clear
12:52 PM 86.0 °F 87.3 °F 64.0 °F 48% 29.87 in 10.0 mi SE 13.8 mph - N/A   Clear
1:52 PM 88.0 °F 88.4 °F 62.1 °F 42% 29.85 in 10.0 mi SSE 16.1 mph 23.0 mph N/A   Clear
2:52 PM 90.0 °F 91.3 °F 64.0 °F 42% 29.84 in 10.0 mi SSE 13.8 mph 20.7 mph N/A   Clear
3:52 PM 90.0 °F 91.3 °F 64.0 °F 42% 29.83 in 10.0 mi South 12.7 mph 20.7 mph N/A   Mostly Cloudy
4:52 PM 91.0 °F 93.0 °F 64.9 °F 42% 29.79 in 10.0 mi South 15.0 mph - N/A   Clear
5:02 PM 89.6 °F 91.1 °F 64.4 °F 43% 29.83 in 10.0 mi South 18.4 mph 24.2 mph N/A Thunderstorm Partly Cloudy
5:17 PM 87.8 °F 90.4 °F 66.2 °F 49% 29.85 in 10.0 mi SSW 11.5 mph 20.7 mph N/A   Mostly Cloudy
5:23 PM 84.2 °F 85.6 °F 64.4 °F 51% 29.85 in 10.0 mi SSW 18.4 mph 28.8 mph N/A Thunderstorm Mostly Cloudy
5:52 PM 72.0 °F - 66.0 °F 81% 29.87 in 3.0 mi NNW 24.2 mph 28.8 mph 0.03 in Rain , Thunderstorm Rain
5:57 PM 69.8 °F - 64.4 °F 83% 29.88 in 2.0 mi NNW 15.0 mph 28.8 mph 0.06 in Rain , Thunderstorm Heavy Rain
6:02 PM 71.6 °F - 64.4 °F 78% 29.88 in 3.0 mi NW 9.2 mph - 0.07 in Rain , Thunderstorm Light Rain
6:10 PM 73.4 °F - 66.2 °F 78% 29.90 in 10.0 mi West 9.2 mph - 0.07 in   Overcast
6:52 PM 70.0 °F - 63.0 °F 78% 29.91 in 10.0 mi NNW 26.5 mph 38.0 mph 0.07 in   Overcast
6:57 PM 69.8 °F - 62.6 °F 78% 29.94 in 10.0 mi North 28.8 mph 35.7 mph N/A   Overcast
7:52 PM 64.0 °F - 57.0 °F 78% 30.01 in 10.0 mi North 25.3 mph 36.8 mph N/A   Overcast
8:52 PM 62.1 °F - 53.1 °F 72% 30.05 in 10.0 mi North 25.3 mph 33.4 mph N/A   Mostly Cloudy
9:52 PM 59.0 °F - 53.1 °F 81% 30.06 in 10.0 mi NNE 16.1 mph 27.6 mph N/A   Clear
10:52 PM 57.9 °F - 54.0 °F 87% 30.12 in 10.0 mi NNW 6.9 mph - N/A   Clear
11:52 PM 57.0 °F - 53.1 °F 87% 30.15 in 10.0 mi NNW 12.7 mph - N/A   Clear